This is the latest recevied weather packets stored in our database for station/object KD0SBN-3. If no packets are shown the sender has not sent any weather packets the latest 10 day(s).
| Time | Temp. | Humidity | Pressure | Rain* | Wind** | Luminosity | Snow |
|---|---|---|---|---|---|---|---|
| 1777905033 | 10.56° C | 41% | 1022.6 hPa | 0 mm | - | 192 W/m² | - |
| 1777904730 | 10.56° C | 41% | 1022.4 hPa | 0 mm | - | 178 W/m² | - |
| 1777904427 | 10° C | 41% | 1022.8 hPa | 0 mm | - | 163 W/m² | - |
| 1777904123 | 10° C | 41% | 1022.5 hPa | 0 mm | - | 149 W/m² | - |
| 1777903820 | 10° C | 41% | 1022.6 hPa | 0 mm | - | 134 W/m² | - |
| 1777903517 | 10° C | 40% | 1022.8 hPa | 0 mm | - | 125 W/m² | - |
| 1777903213 | 10° C | 41% | 1022.6 hPa | 0 mm | - | 116 W/m² | - |
| 1777902909 | 9.44° C | 43% | 1022.6 hPa | 0 mm | - | 107 W/m² | - |
| 1777902606 | 9.44° C | 42% | 1022.5 hPa | 0 mm | - | 102 W/m² | - |
| 1777902304 | 9.44° C | 41% | 1022.4 hPa | 0 mm | - | 104 W/m² | - |
| 1777902001 | 8.89° C | 46% | 1022.4 hPa | 0 mm | - | 96 W/m² | - |
| 1777901699 | 9.44° C | 46% | 1022.5 hPa | 0 mm | - | 92 W/m² | - |
| 1777901396 | 8.89° C | 43% | 1022.3 hPa | 0 mm | - | 84 W/m² | - |
| 1777901093 | 8.89° C | 44% | 1022.5 hPa | 0 mm | - | 74 W/m² | - |
| 1777900791 | 8.89° C | 45% | 1022.3 hPa | 0 mm | - | 65 W/m² | - |
| 1777900488 | 8.33° C | 46% | 1022.6 hPa | 0 mm | - | 59 W/m² | - |
| 1777900185 | 8.89° C | 46% | 1022.5 hPa | 0 mm | - | 54 W/m² | - |
| 1777899881 | 8.89° C | 46% | 1022.3 hPa | 0 mm | - | 52 W/m² | - |
| 1777899578 | 8.89° C | 46% | 1022.3 hPa | 0 mm | - | 45 W/m² | - |
| 1777899276 | 8.33° C | 47% | 1022.3 hPa | 0 mm | - | 43 W/m² | - |
| 1777898973 | 8.33° C | 47% | 1022 hPa | 0 mm | - | 37 W/m² | - |
| 1777898670 | 7.78° C | 50% | 1021.9 hPa | 0 mm | - | 29 W/m² | - |
| 1777898366 | 8.33° C | 48% | 1022.1 hPa | 0 mm | - | 23 W/m² | - |
| 1777898065 | 8.33° C | 47% | 1022.3 hPa | 0 mm | - | 19 W/m² | - |
| 1777897760 | 8.33° C | 47% | 1022.3 hPa | 0 mm | - | 17 W/m² | - |
* Rain latest hour (hover to see other rain measurements)
** Current wind speed in m/s (hover to see current wind gust speed)